AEN908 EDDH-LEPA

Flight info

Callsign AEN908
Flight time 2h 21m
Altitude 37000
Route IDEKO7G IDEKO N850 PIROT N850 XAROL/N0444F360 DCT BOMBI DCT GIGET DCT ABUKA DCT KRH DCT NATOR DCT LUTIX DCT BENOT DCT NEMOS DCT GEVEA DCT INCUS DCT BALSI DCT RETNO DCT TUPOX DCT MTG DCT DIVKO DCT VATIR N852 VERSO L129 LUNIK
Aircraft A321/M-SDE3FGHIRWY/LB1

Departure

Time 2026-04-26 08:12
Airport Hamburg Helmut Schmidt Airport (EDDH)

Arrival

Time 2026-04-26 10:34
Airport Palma de Mallorca Airport (LEPA)
Time Latitude Longitude Altitude Speed Heading
2026-04-26 07:07 53.63168 10.00362 49 ft 0 kts 86°
2026-04-26 08:03 53.63167 10.00350 48 ft 4 kts 86°
2026-04-26 08:03 53.63165 10.00313 48 ft 4 kts 89°
2026-04-26 08:04 53.63169 10.00272 46 ft 4 kts 127°
2026-04-26 08:04 53.63187 10.00250 48 ft 3 kts 174°
2026-04-26 08:04 53.63190 10.00250 48 ft 0 kts 176°
2026-04-26 08:07 53.63184 10.00251 48 ft 1 kts 175°
2026-04-26 08:07 53.63160 10.00254 48 ft 6 kts 175°
2026-04-26 08:08 53.63107 10.00260 48 ft 9 kts 176°
2026-04-26 08:08 53.63031 10.00222 46 ft 13 kts 210°
2026-04-26 08:08 53.62953 10.00138 48 ft 14 kts 213°
2026-04-26 08:08 53.62880 10.00055 46 ft 12 kts 222°
2026-04-26 08:09 53.62846 9.99962 48 ft 0 kts 243°
2026-04-26 08:10 53.62843 9.99951 46 ft 4 kts 243°
2026-04-26 08:10 53.62826 9.99894 46 ft 11 kts 243°
2026-04-26 08:11 53.62823 9.99792 45 ft 10 kts 307°
2026-04-26 08:11 53.62859 9.99754 45 ft 0 kts 333°
2026-04-26 08:11 53.62865 9.99749 45 ft 12 kts 333°
2026-04-26 08:11 53.63185 9.99471 47 ft 89 kts 333°
2026-04-26 08:12 53.63933 9.98825 51 ft 150 kts 333°
2026-04-26 08:12 53.64988 9.97924 318 ft 175 kts 332°
2026-04-26 08:12 53.66065 9.97003 1134 ft 173 kts 333°
2026-04-26 08:12 53.67130 9.96077 1999 ft 171 kts 334°
2026-04-26 08:13 53.68192 9.95140 2720 ft 174 kts 334°
2026-04-26 08:13 53.69264 9.94182 3502 ft 178 kts 333°
2026-04-26 08:13 53.70395 9.93084 3821 ft 198 kts 323°
2026-04-26 08:13 53.71214 9.91132 4237 ft 212 kts 289°
2026-04-26 08:14 53.71296 9.88568 4553 ft 234 kts 257°
2026-04-26 08:14 53.70689 9.85913 5018 ft 250 kts 250°
2026-04-26 08:14 53.70078 9.83061 5564 ft 263 kts 253°
2026-04-26 08:14 53.69514 9.80087 6322 ft 268 kts 255°
2026-04-26 08:15 53.68955 9.77059 7035 ft 273 kts 256°
2026-04-26 08:15 53.68383 9.73985 7779 ft 276 kts 256°
2026-04-26 08:15 53.67796 9.70892 8549 ft 278 kts 256°
2026-04-26 08:15 53.67196 9.67767 9290 ft 281 kts 256°
2026-04-26 08:16 53.66586 9.64630 10020 ft 283 kts 256°
2026-04-26 08:16 53.65784 9.61563 10661 ft 292 kts 241°
2026-04-26 08:16 53.64391 9.59063 11264 ft 304 kts 220°
2026-04-26 08:16 53.62433 9.57410 11523 ft 330 kts 198°
2026-04-26 08:17 53.60076 9.56835 11655 ft 353 kts 188°
2026-04-26 08:17 53.57585 9.56381 11923 ft 366 kts 188°
2026-04-26 08:17 53.55023 9.55902 12437 ft 371 kts 189°
2026-04-26 08:17 53.52446 9.55406 13012 ft 375 kts 189°
2026-04-26 08:18 53.49841 9.54897 13596 ft 378 kts 189°
2026-04-26 08:18 53.47220 9.54379 14161 ft 382 kts 189°
2026-04-26 08:18 53.44560 9.53850 14673 ft 385 kts 189°
2026-04-26 08:18 53.41893 9.53318 15203 ft 388 kts 189°
2026-04-26 08:19 53.39196 9.52786 15746 ft 390 kts 189°
2026-04-26 08:19 53.36486 9.52258 16278 ft 393 kts 189°
2026-04-26 08:19 53.33761 9.51728 16802 ft 395 kts 189°
2026-04-26 08:19 53.31019 9.51193 17321 ft 398 kts 189°
2026-04-26 08:20 53.28260 9.50653 17839 ft 400 kts 190°
2026-04-26 08:20 53.25482 9.50110 18360 ft 403 kts 190°
2026-04-26 08:20 53.22693 9.49566 18823 ft 405 kts 190°
2026-04-26 08:20 53.19882 9.49018 19263 ft 407 kts 190°
2026-04-26 08:21 53.17058 9.48467 19702 ft 409 kts 190°
2026-04-26 08:21 53.14257 9.47922 20131 ft 411 kts 190°
2026-04-26 08:21 53.11404 9.47370 20555 ft 414 kts 190°
2026-04-26 08:21 53.08507 9.46809 20986 ft 416 kts 190°
2026-04-26 08:22 53.05655 9.46254 21410 ft 418 kts 190°
2026-04-26 08:22 53.02769 9.45694 21824 ft 420 kts 190°
2026-04-26 08:22 52.99854 9.45128 22237 ft 422 kts 190°
2026-04-26 08:22 52.96933 9.44550 22648 ft 423 kts 190°
2026-04-26 08:23 52.94011 9.43940 23058 ft 425 kts 191°
2026-04-26 08:23 52.91073 9.43301 23463 ft 427 kts 191°
2026-04-26 08:23 52.88113 9.42647 23868 ft 429 kts 191°
2026-04-26 08:23 52.85155 9.41993 24219 ft 430 kts 191°
2026-04-26 08:24 52.82179 9.41343 24581 ft 432 kts 191°
2026-04-26 08:24 52.79289 9.40722 24929 ft 433 kts 191°
2026-04-26 08:24 52.76261 9.40082 25288 ft 434 kts 191°
2026-04-26 08:24 52.73260 9.39454 25639 ft 435 kts 191°
2026-04-26 08:25 52.70252 9.38821 25991 ft 436 kts 191°
2026-04-26 08:25 52.67237 9.38183 26335 ft 437 kts 191°
2026-04-26 08:25 52.64217 9.37545 26672 ft 438 kts 191°
2026-04-26 08:25 52.61182 9.36895 27012 ft 439 kts 191°
2026-04-26 08:26 52.58160 9.36174 27344 ft 440 kts 192°
2026-04-26 08:26 52.55125 9.35380 27676 ft 441 kts 192°
2026-04-26 08:26 52.52122 9.34554 28001 ft 443 kts 193°
2026-04-26 08:26 52.49078 9.33713 28331 ft 444 kts 192°
2026-04-26 08:27 52.46025 9.32884 28655 ft 445 kts 192°
2026-04-26 08:27 52.42974 9.32069 28965 ft 447 kts 192°
2026-04-26 08:27 52.39891 9.31258 29265 ft 448 kts 192°
2026-04-26 08:27 52.36802 9.30452 29575 ft 449 kts 192°
2026-04-26 08:28 52.33711 9.29649 29862 ft 450 kts 192°
2026-04-26 08:28 52.30609 9.28845 30142 ft 452 kts 192°
2026-04-26 08:28 52.27501 9.28040 30390 ft 453 kts 192°
2026-04-26 08:28 52.24388 9.27230 30600 ft 454 kts 192°
2026-04-26 08:29 52.21257 9.26464 30818 ft 455 kts 190°
2026-04-26 08:29 52.18118 9.25828 31119 ft 454 kts 189°
2026-04-26 08:29 52.14975 9.25279 31421 ft 453 kts 188°
2026-04-26 08:29 52.11846 9.24773 31712 ft 452 kts 188°
2026-04-26 08:30 52.08725 9.24271 31997 ft 451 kts 188°
2026-04-26 08:30 52.05609 9.23749 32279 ft 449 kts 188°
2026-04-26 08:30 52.02511 9.23128 32566 ft 448 kts 190°
2026-04-26 08:30 51.99425 9.22365 32855 ft 446 kts 192°
2026-04-26 08:31 51.96372 9.21523 33135 ft 445 kts 192°
2026-04-26 08:31 51.93323 9.20648 33401 ft 444 kts 192°
2026-04-26 08:31 51.90281 9.19781 33662 ft 444 kts 192°
2026-04-26 08:31 51.87274 9.18960 33925 ft 443 kts 191°
2026-04-26 08:32 51.84225 9.18222 34197 ft 443 kts 190°
2026-04-26 08:32 51.81173 9.17562 34446 ft 442 kts 189°
2026-04-26 08:32 51.78120 9.16945 34658 ft 441 kts 189°
2026-04-26 08:32 51.75072 9.16337 34860 ft 441 kts 189°
2026-04-26 08:33 51.72023 9.15712 35057 ft 441 kts 189°
2026-04-26 08:33 51.68981 9.15069 35251 ft 441 kts 189°
2026-04-26 08:33 51.62925 9.13755 35330 ft 438 kts 189°
2026-04-26 08:34 51.56881 9.12441 35329 ft 436 kts 189°
2026-04-26 08:34 51.50870 9.11150 35324 ft 436 kts 190°
2026-04-26 08:35 51.44910 9.09422 35330 ft 434 kts 194°
2026-04-26 08:35 51.39021 9.07270 35330 ft 434 kts 194°
2026-04-26 08:36 51.33129 9.05135 35339 ft 435 kts 194°
2026-04-26 08:36 51.27170 9.03427 35342 ft 436 kts 189°
2026-04-26 08:37 51.21136 9.02338 35346 ft 436 kts 187°
2026-04-26 08:37 51.15101 9.01322 35346 ft 436 kts 188°
2026-04-26 08:38 51.09120 9.00185 35344 ft 435 kts 188°
2026-04-26 08:38 51.03111 8.98963 35351 ft 435 kts 188°
2026-04-26 08:39 50.97092 8.97743 35353 ft 435 kts 188°
2026-04-26 08:39 50.91082 8.96549 35353 ft 435 kts 188°
2026-04-26 08:40 50.85064 8.95374 35353 ft 435 kts 188°
2026-04-26 08:40 50.79066 8.94198 35346 ft 434 kts 188°
2026-04-26 08:41 50.73064 8.93019 35346 ft 434 kts 188°
2026-04-26 08:41 50.67068 8.91849 35347 ft 434 kts 188°
2026-04-26 08:42 50.61072 8.90684 35346 ft 434 kts 188°
2026-04-26 08:42 50.55073 8.89523 35342 ft 434 kts 188°
2026-04-26 08:43 50.49107 8.88365 35336 ft 434 kts 188°
2026-04-26 08:43 50.43109 8.87205 35337 ft 434 kts 188°
2026-04-26 08:44 50.37113 8.86046 35335 ft 434 kts 188°
2026-04-26 08:44 50.31118 8.84884 35331 ft 434 kts 189°
2026-04-26 08:45 50.25127 8.83732 35327 ft 434 kts 189°
2026-04-26 08:45 50.19126 8.82592 35325 ft 434 kts 189°
2026-04-26 08:46 50.13131 8.81451 35319 ft 434 kts 189°
2026-04-26 08:46 50.07142 8.80299 35317 ft 434 kts 189°
2026-04-26 08:47 50.01157 8.79126 35317 ft 434 kts 189°
2026-04-26 08:47 49.95170 8.77858 35313 ft 434 kts 190°
2026-04-26 08:48 49.89187 8.76593 35309 ft 434 kts 190°
2026-04-26 08:48 49.83203 8.75348 35308 ft 434 kts 190°
2026-04-26 08:49 49.77249 8.74123 35302 ft 434 kts 190°
2026-04-26 08:49 49.71250 8.72906 35298 ft 434 kts 190°
2026-04-26 08:50 49.65266 8.71683 35299 ft 434 kts 190°
2026-04-26 08:50 49.59259 8.70471 35300 ft 434 kts 190°
2026-04-26 08:51 49.50265 8.68662 35306 ft 434 kts 190°
2026-04-26 08:52 49.44300 8.67466 35309 ft 434 kts 190°
2026-04-26 08:52 49.38303 8.66256 35308 ft 434 kts 190°
2026-04-26 08:53 49.33277 8.65241 35303 ft 435 kts 190°
2026-04-26 08:53 49.27279 8.64024 35298 ft 434 kts 190°
2026-04-26 08:54 49.21321 8.62814 35294 ft 435 kts 190°
2026-04-26 08:54 49.15289 8.61613 35287 ft 434 kts 190°
2026-04-26 08:55 49.09327 8.60430 35282 ft 434 kts 190°
2026-04-26 08:55 49.03332 8.59231 35278 ft 434 kts 190°
2026-04-26 08:56 48.97347 8.57957 35273 ft 433 kts 192°
2026-04-26 08:56 48.91444 8.56116 35277 ft 432 kts 195°
2026-04-26 08:57 48.85598 8.54042 35271 ft 432 kts 195°
2026-04-26 08:57 48.79733 8.52056 35266 ft 432 kts 194°
2026-04-26 08:58 48.73853 8.50171 35267 ft 432 kts 194°
2026-04-26 08:58 48.67972 8.48302 35262 ft 431 kts 194°
2026-04-26 08:59 48.62097 8.46421 35262 ft 431 kts 194°
2026-04-26 08:59 48.56222 8.44543 35262 ft 431 kts 194°
2026-04-26 09:00 48.50356 8.42682 35263 ft 431 kts 194°
2026-04-26 09:00 48.44486 8.40809 35265 ft 431 kts 194°
2026-04-26 09:01 48.38622 8.38944 35261 ft 431 kts 194°
2026-04-26 09:01 48.32753 8.37085 35261 ft 431 kts 194°
2026-04-26 09:02 48.26925 8.35245 35258 ft 431 kts 194°
2026-04-26 09:02 48.21060 8.33397 35261 ft 430 kts 194°
2026-04-26 09:03 48.15450 8.30518 35259 ft 425 kts 211°
2026-04-26 09:03 48.10467 8.25793 35258 ft 424 kts 214°
2026-04-26 09:04 48.05507 8.21006 35256 ft 424 kts 214°
2026-04-26 09:04 48.00534 8.16238 35259 ft 424 kts 214°
2026-04-26 09:05 47.95568 8.11480 35261 ft 424 kts 214°
2026-04-26 09:05 47.90602 8.06730 35264 ft 424 kts 214°
2026-04-26 09:06 47.85639 8.01989 35257 ft 424 kts 214°
2026-04-26 09:06 47.80700 7.97284 35253 ft 423 kts 214°
2026-04-26 09:07 47.75734 7.92562 35258 ft 423 kts 214°
2026-04-26 09:07 47.70771 7.87848 35253 ft 423 kts 214°
2026-04-26 09:08 47.65803 7.83145 35256 ft 423 kts 214°
2026-04-26 09:08 47.60837 7.78450 35261 ft 423 kts 214°
2026-04-26 09:09 47.55867 7.73774 35252 ft 423 kts 214°
2026-04-26 09:09 47.51208 7.69393 35265 ft 423 kts 214°
2026-04-26 09:10 47.46236 7.64732 35256 ft 423 kts 214°
2026-04-26 09:10 47.41268 7.60076 35250 ft 423 kts 214°
2026-04-26 09:11 47.36297 7.55435 35231 ft 422 kts 214°
2026-04-26 09:11 47.31355 7.50845 35234 ft 422 kts 214°
2026-04-26 09:12 47.26387 7.46217 35228 ft 422 kts 214°
2026-04-26 09:12 47.21420 7.41604 35249 ft 422 kts 214°
2026-04-26 09:13 47.16611 7.36711 35245 ft 419 kts 224°
2026-04-26 09:13 47.12827 7.30262 35229 ft 417 kts 233°
2026-04-26 09:14 47.09205 7.23572 35230 ft 417 kts 232°
2026-04-26 09:14 47.05576 7.16931 35231 ft 418 kts 232°
2026-04-26 09:15 47.01939 7.10281 35225 ft 418 kts 232°
2026-04-26 09:15 46.98321 7.03655 35228 ft 418 kts 232°
2026-04-26 09:16 46.94709 6.97048 35232 ft 418 kts 232°
2026-04-26 09:16 46.90970 6.90520 35234 ft 419 kts 225°
2026-04-26 09:17 46.86496 6.85038 35231 ft 420 kts 220°
2026-04-26 09:17 46.81957 6.79636 35235 ft 421 kts 220°
2026-04-26 09:18 46.77420 6.74226 35234 ft 421 kts 220°
2026-04-26 09:18 46.72873 6.68835 35228 ft 421 kts 220°
2026-04-26 09:19 46.68315 6.63447 35220 ft 421 kts 220°
2026-04-26 09:19 46.63763 6.58066 35215 ft 421 kts 220°
2026-04-26 09:20 46.59211 6.52697 35209 ft 421 kts 220°
2026-04-26 09:20 46.54650 6.47339 35209 ft 421 kts 220°
2026-04-26 09:21 46.50112 6.42017 35208 ft 421 kts 220°
2026-04-26 09:21 46.45545 6.36676 35205 ft 421 kts 220°
2026-04-26 09:22 46.40980 6.31346 35203 ft 421 kts 220°
2026-04-26 09:22 46.36411 6.26011 35204 ft 422 kts 220°
2026-04-26 09:23 46.31834 6.20694 35205 ft 422 kts 220°
2026-04-26 09:23 46.27164 6.15545 35205 ft 423 kts 212°
2026-04-26 09:24 46.21681 6.12411 35200 ft 427 kts 193°
2026-04-26 09:24 46.15827 6.11096 35198 ft 429 kts 191°
2026-04-26 09:25 46.09926 6.09786 35198 ft 429 kts 191°
2026-04-26 09:25 46.03990 6.08454 35201 ft 429 kts 191°
2026-04-26 09:26 45.98120 6.07151 35199 ft 429 kts 191°
2026-04-26 09:26 45.92209 6.05854 35199 ft 429 kts 191°
2026-04-26 09:27 45.86298 6.04555 35199 ft 430 kts 191°
2026-04-26 09:27 45.80383 6.03254 35200 ft 430 kts 191°
2026-04-26 09:28 45.74465 6.01941 35180 ft 430 kts 191°
2026-04-26 09:28 45.68553 6.00636 35178 ft 429 kts 191°
2026-04-26 09:29 45.62647 5.99336 35178 ft 430 kts 191°
2026-04-26 09:29 45.56733 5.98045 35180 ft 429 kts 191°
2026-04-26 09:30 45.50825 5.96756 35181 ft 429 kts 191°
2026-04-26 09:30 45.44932 5.95365 35186 ft 428 kts 194°
2026-04-26 09:31 45.39154 5.93552 35181 ft 428 kts 196°
2026-04-26 09:31 45.33348 5.91601 35181 ft 428 kts 195°
2026-04-26 09:32 45.27534 5.89732 35179 ft 429 kts 195°
2026-04-26 09:32 45.21699 5.87932 35176 ft 429 kts 195°
2026-04-26 09:33 45.15886 5.86142 35176 ft 429 kts 195°
2026-04-26 09:33 45.10046 5.84346 35174 ft 430 kts 195°
2026-04-26 09:34 45.04205 5.82542 35168 ft 430 kts 195°
2026-04-26 09:34 44.98366 5.80732 35170 ft 430 kts 195°
2026-04-26 09:35 44.93456 5.79213 35164 ft 430 kts 195°
2026-04-26 09:35 44.87642 5.77427 35162 ft 430 kts 195°
2026-04-26 09:36 44.81792 5.75647 35154 ft 430 kts 195°
2026-04-26 09:36 44.75934 5.73860 35146 ft 431 kts 195°
2026-04-26 09:37 44.70067 5.72069 35143 ft 431 kts 195°
2026-04-26 09:37 44.64210 5.70282 35140 ft 431 kts 195°
2026-04-26 09:38 44.58345 5.68498 35137 ft 431 kts 195°
2026-04-26 09:38 44.52466 5.66713 35133 ft 432 kts 195°
2026-04-26 09:39 44.46591 5.64937 35134 ft 432 kts 195°
2026-04-26 09:39 44.40716 5.63161 35130 ft 432 kts 195°
2026-04-26 09:40 44.35012 5.60719 35127 ft 428 kts 204°
2026-04-26 09:40 44.29465 5.57662 35126 ft 428 kts 204°
2026-04-26 09:41 44.23919 5.54623 35130 ft 429 kts 204°
2026-04-26 09:41 44.18371 5.51592 35135 ft 428 kts 204°
2026-04-26 09:42 44.12807 5.48563 35138 ft 429 kts 204°
2026-04-26 09:42 44.07290 5.45565 35132 ft 429 kts 204°
2026-04-26 09:43 44.01727 5.42543 35132 ft 429 kts 204°
2026-04-26 09:43 43.96156 5.39530 35130 ft 429 kts 204°
2026-04-26 09:44 43.90581 5.36509 35126 ft 430 kts 204°
2026-04-26 09:44 43.85005 5.33492 35138 ft 431 kts 204°
2026-04-26 09:45 43.79415 5.30476 35139 ft 431 kts 204°
2026-04-26 09:45 43.73819 5.27475 35137 ft 431 kts 204°
2026-04-26 09:46 43.68245 5.24487 35138 ft 432 kts 204°
2026-04-26 09:46 43.62643 5.21480 35142 ft 432 kts 204°
2026-04-26 09:47 43.57044 5.18480 35144 ft 432 kts 203°
2026-04-26 09:47 43.51429 5.15493 35145 ft 432 kts 203°
2026-04-26 09:48 43.45808 5.12499 35146 ft 432 kts 203°
2026-04-26 09:48 43.40209 5.09505 35150 ft 432 kts 205°
2026-04-26 09:49 43.35079 5.05327 35151 ft 428 kts 217°
2026-04-26 09:49 43.30161 5.00683 35150 ft 428 kts 216°
2026-04-26 09:50 43.25251 4.96064 35150 ft 428 kts 216°
2026-04-26 09:50 43.20363 4.91473 35150 ft 429 kts 216°
2026-04-26 09:51 43.15410 4.86834 35151 ft 429 kts 216°
2026-04-26 09:51 43.10480 4.82227 35154 ft 429 kts 216°
2026-04-26 09:52 43.05568 4.77682 35155 ft 429 kts 213°
2026-04-26 09:52 42.97723 4.71701 35155 ft 430 kts 211°
2026-04-26 09:53 42.92485 4.67726 35157 ft 431 kts 211°
2026-04-26 09:53 42.87243 4.63757 35160 ft 431 kts 211°
2026-04-26 09:54 42.81993 4.59802 35161 ft 431 kts 211°
2026-04-26 09:54 42.76739 4.55850 35154 ft 431 kts 211°
2026-04-26 09:55 42.71483 4.51902 35154 ft 431 kts 211°
2026-04-26 09:55 42.66252 4.47978 35158 ft 432 kts 211°
2026-04-26 09:56 42.60992 4.44031 35161 ft 432 kts 211°
2026-04-26 09:56 42.55729 4.40083 35155 ft 432 kts 210°
2026-04-26 09:57 42.50450 4.36148 35165 ft 432 kts 210°
2026-04-26 09:57 42.45174 4.32236 35163 ft 433 kts 210°
2026-04-26 09:58 42.39891 4.28315 35165 ft 433 kts 210°
2026-04-26 09:58 42.34604 4.24399 35166 ft 433 kts 210°
2026-04-26 09:59 42.29315 4.20481 35166 ft 433 kts 210°
2026-04-26 09:59 42.24050 4.16588 35167 ft 434 kts 210°
2026-04-26 10:00 42.18758 4.12682 35170 ft 434 kts 210°
2026-04-26 10:00 42.13456 4.08779 35176 ft 434 kts 210°
2026-04-26 10:01 42.08155 4.04889 35175 ft 434 kts 210°
2026-04-26 10:01 42.02842 4.01003 35175 ft 434 kts 210°
2026-04-26 10:02 41.97528 3.97117 35176 ft 435 kts 210°
2026-04-26 10:02 41.92084 3.93581 35176 ft 436 kts 199°
2026-04-26 10:03 41.86139 3.91909 35174 ft 437 kts 191°
2026-04-26 10:03 41.80138 3.90532 35173 ft 437 kts 191°
2026-04-26 10:04 41.74139 3.89145 35185 ft 437 kts 191°
2026-04-26 10:04 41.68142 3.87765 35190 ft 437 kts 191°
2026-04-26 10:05 41.62159 3.86392 35192 ft 436 kts 191°
2026-04-26 10:05 41.56172 3.85020 35187 ft 436 kts 191°
2026-04-26 10:06 41.50185 3.83642 35185 ft 436 kts 191°
2026-04-26 10:06 41.44217 3.82277 35188 ft 435 kts 191°
2026-04-26 10:07 41.38244 3.80913 35188 ft 435 kts 191°
2026-04-26 10:07 41.32273 3.79544 35188 ft 435 kts 190°
2026-04-26 10:08 41.26342 3.78195 35189 ft 435 kts 190°
2026-04-26 10:08 41.20372 3.76842 35192 ft 435 kts 190°
2026-04-26 10:09 41.17375 3.76163 34781 ft 438 kts 190°
2026-04-26 10:09 41.15350 3.75578 34189 ft 442 kts 197°
2026-04-26 10:09 41.11558 3.73726 33547 ft 435 kts 201°
2026-04-26 10:09 41.08753 3.72275 33061 ft 430 kts 201°
2026-04-26 10:10 41.05972 3.70851 32572 ft 426 kts 201°
2026-04-26 10:10 41.03220 3.69446 32088 ft 422 kts 201°
2026-04-26 10:10 41.00492 3.68053 31611 ft 418 kts 201°
2026-04-26 10:10 40.97791 3.66674 31147 ft 414 kts 201°
2026-04-26 10:11 40.95117 3.65305 30678 ft 410 kts 201°
2026-04-26 10:11 40.92466 3.63943 30221 ft 407 kts 201°
2026-04-26 10:11 40.89835 3.62590 29731 ft 402 kts 201°
2026-04-26 10:11 40.87245 3.61258 29305 ft 397 kts 201°
2026-04-26 10:12 40.84686 3.59945 28868 ft 392 kts 201°
2026-04-26 10:12 40.82193 3.58669 28464 ft 387 kts 201°
2026-04-26 10:12 40.79664 3.57373 28043 ft 382 kts 201°
2026-04-26 10:12 40.77197 3.56110 27642 ft 378 kts 201°
2026-04-26 10:13 40.74760 3.54866 27257 ft 373 kts 201°
2026-04-26 10:13 40.73167 3.54055 27009 ft 370 kts 201°
2026-04-26 10:13 40.70005 3.52449 26507 ft 365 kts 201°
2026-04-26 10:13 40.67651 3.51254 26136 ft 360 kts 201°
2026-04-26 10:14 40.65327 3.50072 25748 ft 356 kts 201°
2026-04-26 10:14 40.63014 3.48895 25378 ft 354 kts 201°
2026-04-26 10:14 40.60720 3.47730 24993 ft 353 kts 201°
2026-04-26 10:14 40.58436 3.46570 24603 ft 351 kts 201°
2026-04-26 10:15 40.56157 3.45413 24211 ft 349 kts 201°
2026-04-26 10:15 40.54659 3.44652 23950 ft 348 kts 201°
2026-04-26 10:15 40.52404 3.43507 23516 ft 346 kts 201°
2026-04-26 10:15 40.50170 3.42373 23105 ft 343 kts 201°
2026-04-26 10:16 40.47943 3.41242 22698 ft 341 kts 201°
2026-04-26 10:16 40.45729 3.40147 22306 ft 339 kts 197°
2026-04-26 10:16 40.43448 3.39484 21904 ft 336 kts 186°
2026-04-26 10:16 40.41119 3.39398 21511 ft 333 kts 176°
2026-04-26 10:17 40.38841 3.39546 21120 ft 331 kts 176°
2026-04-26 10:17 40.36521 3.39684 20727 ft 329 kts 176°
2026-04-26 10:17 40.34238 3.39810 20334 ft 327 kts 176°
2026-04-26 10:17 40.31968 3.39931 19922 ft 326 kts 176°
2026-04-26 10:18 40.29709 3.40054 19551 ft 323 kts 176°
2026-04-26 10:18 40.27497 3.40179 19184 ft 321 kts 176°
2026-04-26 10:18 40.25267 3.40306 18806 ft 319 kts 176°
2026-04-26 10:18 40.23052 3.40431 18422 ft 318 kts 176°
2026-04-26 10:19 40.20818 3.40559 18009 ft 316 kts 176°
2026-04-26 10:19 40.18664 3.40682 17634 ft 314 kts 176°
2026-04-26 10:19 40.16476 3.40806 17258 ft 312 kts 176°
2026-04-26 10:19 40.14315 3.40928 16888 ft 311 kts 176°
2026-04-26 10:20 40.12159 3.41051 16516 ft 309 kts 176°
2026-04-26 10:20 40.10012 3.41174 16146 ft 308 kts 176°
2026-04-26 10:20 40.07872 3.41295 15785 ft 306 kts 176°
2026-04-26 10:20 40.05755 3.41414 15424 ft 303 kts 176°
2026-04-26 10:21 40.03652 3.41530 15061 ft 301 kts 176°
2026-04-26 10:21 40.01566 3.41647 14695 ft 300 kts 176°
2026-04-26 10:21 39.99482 3.41765 14316 ft 299 kts 176°
2026-04-26 10:21 39.97398 3.41886 13947 ft 298 kts 176°
2026-04-26 10:22 39.95354 3.42003 13554 ft 297 kts 176°
2026-04-26 10:22 39.93270 3.42120 13180 ft 294 kts 176°
2026-04-26 10:22 39.91257 3.42232 12821 ft 292 kts 176°
2026-04-26 10:22 39.89227 3.42344 12462 ft 290 kts 176°
2026-04-26 10:23 39.87222 3.42453 12106 ft 288 kts 176°
2026-04-26 10:23 39.85226 3.42563 11751 ft 286 kts 176°
2026-04-26 10:23 39.83230 3.42676 11284 ft 289 kts 176°
2026-04-26 10:23 39.81220 3.42791 10883 ft 289 kts 176°
2026-04-26 10:24 39.79217 3.42908 10524 ft 287 kts 176°
2026-04-26 10:24 39.77229 3.43022 10163 ft 286 kts 177°
2026-04-26 10:24 39.75243 3.43132 9789 ft 284 kts 177°
2026-04-26 10:24 39.73283 3.42913 9419 ft 283 kts 197°
2026-04-26 10:25 39.71572 3.41702 9070 ft 282 kts 222°
2026-04-26 10:25 39.70404 3.39684 8760 ft 284 kts 246°
2026-04-26 10:25 39.69973 3.37177 8453 ft 287 kts 270°
2026-04-26 10:25 39.70047 3.34582 8143 ft 287 kts 273°
2026-04-26 10:26 39.70134 3.31990 7831 ft 286 kts 273°
2026-04-26 10:26 39.70217 3.29446 7526 ft 285 kts 273°
2026-04-26 10:26 39.70299 3.26877 7220 ft 284 kts 273°
2026-04-26 10:26 39.70381 3.24313 6917 ft 283 kts 272°
2026-04-26 10:27 39.70460 3.21762 6609 ft 282 kts 272°
2026-04-26 10:27 39.70538 3.19214 6289 ft 282 kts 272°
2026-04-26 10:27 39.70614 3.16673 5982 ft 281 kts 272°
2026-04-26 10:27 39.70692 3.14132 5680 ft 281 kts 273°
2026-04-26 10:28 39.70770 3.11608 5374 ft 279 kts 272°
2026-04-26 10:28 39.70643 3.09118 5071 ft 276 kts 256°
2026-04-26 10:28 39.69945 3.06820 4784 ft 272 kts 238°
2026-04-26 10:28 39.68964 3.04725 4497 ft 270 kts 238°
2026-04-26 10:29 39.67989 3.02645 4216 ft 269 kts 238°
2026-04-26 10:29 39.67024 3.00583 3937 ft 266 kts 238°
2026-04-26 10:29 39.66060 2.98527 3655 ft 266 kts 238°
2026-04-26 10:29 39.65102 2.96484 3393 ft 262 kts 238°
2026-04-26 10:30 39.64182 2.94521 3223 ft 248 kts 238°
2026-04-26 10:30 39.63308 2.92662 2952 ft 243 kts 238°
2026-04-26 10:30 39.62430 2.90793 2606 ft 240 kts 238°
2026-04-26 10:30 39.61577 2.88978 2322 ft 227 kts 238°
2026-04-26 10:31 39.60779 2.87283 2011 ft 217 kts 237°
2026-04-26 10:31 39.60028 2.85686 1739 ft 198 kts 238°
2026-04-26 10:31 39.59336 2.84216 1489 ft 180 kts 238°
2026-04-26 10:31 39.58724 2.82901 1222 ft 163 kts 238°
2026-04-26 10:32 39.58162 2.81688 992 ft 153 kts 237°
2026-04-26 10:32 39.57614 2.80530 804 ft 148 kts 237°
2026-04-26 10:32 39.57072 2.79395 578 ft 147 kts 236°
2026-04-26 10:32 39.56543 2.78266 388 ft 146 kts 238°
2026-04-26 10:33 39.56013 2.77148 205 ft 145 kts 236°
2026-04-26 10:33 39.55484 2.76035 58 ft 145 kts 237°
2026-04-26 10:33 39.54995 2.75007 30 ft 116 kts 238°
2026-04-26 10:33 39.54670 2.74317 29 ft 52 kts 238°
2026-04-26 10:34 39.54561 2.74018 30 ft 27 kts 266°
2026-04-26 10:34 39.54553 2.73885 30 ft 14 kts 266°
2026-04-26 10:34 39.54552 2.73814 30 ft 6 kts 269°
2026-04-26 10:34 39.54551 2.73803 30 ft 2 kts 269°
2026-04-26 10:35 39.54551 2.73783 30 ft 3 kts 269°
2026-04-26 10:35 39.54551 2.73747 30 ft 5 kts 271°
2026-04-26 10:35 39.54553 2.73736 30 ft 0 kts 281°
2026-04-26 10:36 39.54554 2.73730 30 ft 2 kts 281°
2026-04-26 10:36 39.54559 2.73708 30 ft 4 kts 290°
2026-04-26 10:36 39.54564 2.73693 30 ft 3 kts 295°
2026-04-26 10:36 39.54605 2.73636 30 ft 12 kts 329°
2026-04-26 10:37 39.54685 2.73599 30 ft 13 kts 331°
2026-04-26 10:37 39.54758 2.73541 30 ft 11 kts 329°
2026-04-26 10:37 39.54809 2.73530 30 ft 7 kts 26°
2026-04-26 10:37 39.54827 2.73554 30 ft 3 kts 52°
2026-04-26 10:38 39.54836 2.73570 30 ft 0 kts 56°
2026-04-26 10:38 39.54836 2.73571 30 ft 0 kts 56°